Regional Weather Roundup
Issued by NWS New Orleans/Baton Rouge, LA

Home | Current Version | Previous Version | Text Only | Print | Product List | Glossary On
Versions: 1 2 3 4 5 6 7 8 9 10 11 12 13 14 15 16 17 18 19 20 21 22 23 24 25 26 27 28 29 30 31 32 33 34 35 36 37 38 39 40 41 42 43 44 45 46 47 48 49 50
000
ASUS44 KLIX 152210
RWRLIX
NEW ORLEANS REGIONAL WEATHER ROUNDUP
NATIONAL WEATHER SERVICE NEW ORLEANS LA
500 PM CDT MON JUL 15 2019

NOTE: "FAIR" INDICATES FEW OR NO CLOUDS BELOW 12,000 FEET WITH NO
      SIGNIFICANT WEATHER AND/OR OBSTRUCTIONS TO VISIBILITY.
      SKY/WX - SKY CONDITION AND SIGNIFICANT WEATHER.
      TMP - AIR TEMPERATURE.     DP    - DEWPOINT TEMPERATURE.
      RH  - RELATIVE HUMIDITY.   PRES  - PRESSURE.
      HI  - HEAT INDEX.          WCI   - WIND CHILL INDEX.

*  THESE STATIONS ARE NOT NWS OR FAA STATIONS AND ARE NOT UNDER
   NWS QUALITY CONTROL.

LAZ038-040-048-061>063-065>067-069-152300-
SOUTHEAST LOUISIANA

CITY           SKY/WX    TMP DP  RH WIND       PRES   REMARKS
N.O. INTL ARPT PTSUNNY   87  76  69 S16       30.01F HX  97
N.O. LAKEFRONT PTSUNNY   88  75  65 S17       30.02F HAZE    HX  97
N.O. DOWNTOWN* MOCLDY    87  77  72 S14G21    30.03F HX  99
RESERVE*       FAIR      87  80  78 S17       30.01F HX 103
SLIDELL        FAIR      88  75  65 S18G24    30.02F HX  97
BATON ROUGE    FAIR      88  73  61 S21       29.98F HX  95
BOOTHVILLE     PTSUNNY   85  78  80 S7        30.04F HX  96
BELLE CHASSE   PTSUNNY   84  79  85 S12       30.02F HX  96
BOGALUSA*      FAIR      85  76  74 SE7       30.02F HX  95
GALLIANO*      MOCLDY    85  75  72 S9        30.03S
NEW ROADS*     FAIR      84  75  74 S13G18    29.98F
GONZALES*      MOCLDY    86  76  72 SW8       29.99F HX  96
HAMMOND*       FAIR      86  77  74 S15       30.00S HX  97
HOUMA*         MOSUNNY   88  79  74 S14G20    30.02F HX 102
PORT FOURCHON*   N/A     84  82  94 S9        30.03F HX 101

$$

MSZ070-080>082-152300-
SOUTHERN MISSISSIPPI

CITY           SKY/WX    TMP DP  RH WIND       PRES   REMARKS
MCCOMB         PTSUNNY   84  75  74 SE10      30.01S
GULFPORT       FAIR      86  78  77 S10       30.03F HX  98
BILOXI         FAIR      85  80  83 S9        30.04F HX  99
PASCAGOULA     FAIR      86  76  71 S7        30.06S HX  96
STENNIS ARPT*  PTSUNNY   84  77  79 S12       30.03F

$$

COASTAL OBSERVATIONS
LAKE AND NEARSHORE STATIONS

STATION/POSITION TIME  SKY/WX   TEMP    WIND        PRES    WAVE
                                AIR SEA DIR/SP/G            HT/PER
                 (UTC)          (F)     (DEG/KT/KT) (MB)    (FT/S)
WAVELAND YACHT   2124            83 81  160/ 10/ 12 1017.7
GRAND ISLE       2130            84 81  180/  4/  8 1017.3
SOUTHWEST PASS   2130                   170/ 12/ 13   N/A
NEW CANAL        2124            87 83  170/  6/ 13 1015.8
SHELL BEACH      2124            84 83  170/ 11/ 15 1017.4

OFFSHORE STATIONS

STATION/POSITION TIME  SKY/WX   TEMP    WIND        PRES    WAVE
                                AIR SEA DIR/SP/G            HT/PER
                 (UTC)          (F)     (DEG/KT/KT) (MB)    (FT/S)
64 S DAUPHIN ISL 2200            84 84  160/ 10/ 12 1017.9

$$




USA.gov is the U.S. government's official web portal to all federal, state and local government web resources and services.